Location: Corralito
(10.2667°N, 66.9500°W)
Time: 17:25:35
(UTC+00:00)

Okean O Rocket - Pass Details

Date: 23 March 2023
Orbit: 621 x 641 km, 98.1° (Epoch: 09 June)

Event Time Altitude Azimuth Distance (km) Brightness Sun altitude
Exits shadow 23:09:46 11° 94° (E) 1,992 3.5 -8.5°
Maximum altitude 23:11:11 12° 75° (ENE) 1,894 3.4 -8.8°
Drops below altitude 10° 23:12:50 10° 53° (NE) 2,021 3.7 -9.2°
Sets 23:16:23 0° 22° (NNE) 2,924 4.8 -10.1°
